weather.gov     
National Weather Service

Other Surface Observations
NWS Homepage
This page is being discontinued on March 12, 2014.
The same data is available at this site. Please update your bookmarks.
Thank you, and we apologize for the inconvenience.
Please send an email to SR-SRH.Webmaster@noaa.gov with any concerns.


Current Version
Previous Version:    01  02  03  04  05  06  07  08  09  10  11  12  13  14  15  16  17  18  19  20  21  22  23  24  25  26  27  28  29  30  
   31  32  33  34  35  36  37  38  39  40  41  42  43  44  45  46  47  48  49  50  51  52  53  54  55  56  57  58  59  60  
[Printable]
247
SXUS55 KTWC 300016
OSOTWC

WEATHER ROUNDUP FOR SOUTHEAST ARIZONA
NATIONAL WEATHER SERVICE TUCSON AZ
515 PM MST FRI AUG 29 2014

AZZ504>506-514-300115-
LOCATION       SKY/WX    TMP DP  RH WIND       PRES   REMARKS
TUCSON         SUNNY    101  36  10 NW9       29.86S
DAVIS-MONTHAN  SUNNY    100  38  11 VRB2      29.83F
CHILDRENS PARK N/A       99  40  13 NW3               PIMA CO DEQ
ALVERNON/22ND  N/A      N/A N/A N/A N/A               PIMA CO DEQ
CHERRY/GLENN   N/A      N/A N/A N/A N/A               PIMA CO DEQ
TANGERINE      N/A      100 N/A N/A W7                PIMA CO DEQ
CONTL RANCH    N/A      102  40  12 W5                PIMA CO DEQ
GRANT/1ST      N/A      100  38  12 N3                PIMA CO DEQ
CRAYCROFT/22ND N/A      N/A N/A N/A N/A               PIMA CO DEQ
GOLFLINKS/KOLB N/A      N/A N/A N/A N/A               PIMA CO DEQ
AJO/12TH       N/A      100  38  12 N2                PIMA CO DEQ
SAGUARO EAST   N/A      N/A N/A N/A N/A               PIMA CO DEQ
FAIRGROUNDS    N/A       99 N/A N/A NW6               PIMA CO DEQ
SAGUARO        N/A      101  41  13 SW7G16            *SABINO CYN
SAN CARLOS     N/A      102  38  11 E2                *SAN CARLOS
GREEN VALLEY   N/A       99  35  11 N3                PIMA CO DEQ
HORSE CAMP CYN N/A       93  35  13 W10G21            *ARAVAIPA CYN
RINCON MTNS    N/A       76  41  28 NW3G10            *NR MANNING CAMP
$$

AZZ509>511-300115-
LOCATION       SKY/WX    TMP DP  RH WIND       PRES   REMARKS
SAFFORD        SUNNY     96  38  13 CALM      29.87F
STRAY HORSE    N/A       76  37  24 W5G11             *
TRAIL CABIN    N/A       85  39  20 SE3G10            *N OF GRANVILLE
BLACK HILLS    N/A       97  38  13 W5G14             *N OF FT THOMAS
DRY LAKE       N/A       79  43  28 S4G10             *NATANES MTNS
NOON CREEK     N/A       90  45  21 SE3               *PINALENO MTNS
COLUMBINE      N/A       69  42  38 W2                *PINALENO MTNS
GUTHRIE        N/A       85  37  18 SW4G14            *SW OF GUTHRIE
$$

AZZ502-503-513-300115-
LOCATION       SKY/WX    TMP DP  RH WIND       PRES   REMARKS
NOGALES        SUNNY     91  47  21 CALM      29.95F
SELLS          N/A      103  41  12 N5G16             *
SASABE         N/A       97  38  13 NW6G16            *ALTAR VLY
HOPKINS        N/A       80  45  29 W5G11             *SANTA RITA MTNS
CARR CYN       N/A       83  48  30 NW2               *W OF HEREFORD
$$

AZZ507-508-512-300115-
LOCATION       SKY/WX    TMP DP  RH WIND       PRES   REMARKS
SIERRA VISTA   MOSUNNY   90  41  18 CALM      30.04S
DOUGLAS        SUNNY     91  44  19 CALM      29.98S
EMPIRE MTNS    N/A       91  42  18 NE3G11            *LAS CIENEGAS NCA
MULESHOE RANCH N/A       92  36  14 NW4G15            *PRESERVE
HEADQUARTERS   N/A       87  47  25 W3G14             *CHIRICAHUA MTNS
$$

.............................NOTES.............................
THIS IS AN AUTOMATED COLLECTIVE WITH MINIMAL QUALITY CONTROL.
PIMA CO DEQ SITES HAVE NONSTANDARD WIND SENSOR HEIGHTS.
PIMA CO DEQ SITES DO NOT REPORT WIND GUSTS.
* INDICATES WIND SENSORS LOCATED AT 20 FEET INSTEAD OF 33 FEET.
..............................KEY..............................
SKY/WX - SKY CONDITION/WEATHER
TMP    - TEMPERATURE IN FAHRENHEIT
DP     - DEWPOINT IN FAHRENHEIT
RH     - RELATIVE HUMIDITY IN PERCENT
WIND   - DIRECTION AND SPEED IN MILES PER HOUR (MPH)
VRB    - VARIABLE WIND DIRECTION
PRES   - MEAN SEA LEVEL PRESSURE IN INCHES OF MERCURY
         F - FALLING PRESSURE   R - RISING PRESSURE
         S - STEADY PRESSURE
VSB    - VISIBILITY IN MILES
HX     - HEAT INDEX IN FAHRENHEIT
WCI    - WIND CHILL INDEX IN FAHRENHEIT
N/A    - NOT AVAILABLE
AFB    - AIR FORCE BASE
         DAVIS-MONTHAN IS DAVIS-MONTHAN AIR FORCE BASE
CYN    - CANYON
MTNS   - MOUNTAINS
NCA    - NATIONAL CONSERVATION AREA
NR     - NEAR
VLY    - VALLEY
CONTL  - CONTINENTAL
PIMA CO DEQ - PIMA COUNTY DEPT OF ENVIRONMENTAL QUALITY




U.S. Dept. of Commerce
NOAA National Weather Service
1325 East West Highway
Silver Spring, MD 20910
E-mail: w-nws.webmaster@noaa.gov
Page last modified: May 16, 2007
NATIONAL WEATHER SERVICE: for Safety, for Work, for Fun - FOR LIFE